Location: Bois de la Silve
(44.4667°N, 6.7833°E)
Time: 00:31:12
(UTC+00:00)

USA 238 DEB - Pass Details

Date: 31 October 2020
Orbit: 1001 x 1211 km, 63.5° (Epoch: 22 November)

Event Time Altitude Azimuth Distance (km) Brightness Sun altitude
Exits shadow 04:06:33 22° 321° (NW) 2,118 4.9 -22.3°
Maximum altitude 04:07:37 23° 335° (NNW) 2,089 5.0 -22.2°
Drops below altitude 10° 04:13:04 10° 26° (NNE) 2,967 6.3 -21.2°
Sets 04:16:29 0° 40° (NE) 3,966 7.3 -20.6°
